This is the latest recevied weather packets stored in our database for station/object IK6ZNK-3. If no packets are shown the sender has not sent any weather packets the latest 10 day(s).
| Time | Temp. | Humidity | Pressure | Rain* | Wind** | Luminosity | Snow |
|---|---|---|---|---|---|---|---|
| 1777834807 | 17.78° C | 51% | 1010 hPa | 0 mm | - | - | - |
| 1777834207 | 17.78° C | 51% | 1010 hPa | 0 mm | - | - | - |
| 1777833607 | 17.78° C | 52% | 1010 hPa | 0 mm | - | - | - |
| 1777833007 | 17.78° C | 52% | 1010 hPa | 0 mm | - | - | - |
| 1777832406 | 17.78° C | 52% | 1009.9 hPa | 0 mm | - | - | - |
| 1777831806 | 17.78° C | 53% | 1009.8 hPa | 0 mm | - | - | - |
| 1777831206 | 17.78° C | 53% | 1009.8 hPa | 0 mm | - | - | - |
| 1777830607 | 17.78° C | 54% | 1009.7 hPa | 0 mm | - | - | - |
| 1777830007 | 18.33° C | 54% | 1009.7 hPa | 0 mm | - | - | - |
| 1777829407 | 18.89° C | 53% | 1009.8 hPa | 0 mm | - | - | - |
| 1777828806 | 19.44° C | 50% | 1009.5 hPa | 0 mm | - | - | - |
| 1777828206 | 19.44° C | 48% | 1009.7 hPa | 0 mm | - | - | - |
| 1777827606 | 19.44° C | 50% | 1009.5 hPa | 0 mm | - | - | - |
| 1777827006 | 19.44° C | 50% | 1009.7 hPa | 0 mm | - | - | - |
| 1777826407 | 20.56° C | 47% | 1009.6 hPa | 0 mm | - | - | - |
| 1777825807 | 21.11° C | 45% | 1009.5 hPa | 0 mm | - | - | - |
| 1777825208 | 21.11° C | 46% | 1009.8 hPa | 0 mm | - | - | - |
| 1777824608 | 20.56° C | 45% | 1009.8 hPa | 0 mm | - | - | - |
| 1777824008 | 20.56° C | 46% | 1009.5 hPa | 0 mm | - | - | - |
| 1777823411 | 20.56° C | 45% | 1009.8 hPa | 0 mm | - | - | - |
| 1777822809 | 21.11° C | 45% | 1009.7 hPa | 0 mm | - | - | - |
| 1777822207 | 21.67° C | 46% | 1009.8 hPa | 0 mm | - | - | - |
| 1777821607 | 21.11° C | 46% | 1009.7 hPa | 0 mm | - | - | - |
| 1777821007 | 21.11° C | 44% | 1009.9 hPa | 0 mm | - | - | - |
| 1777820407 | 21.67° C | 45% | 1009.8 hPa | 0 mm | - | - | - |
* Rain latest hour (hover to see other rain measurements)
** Current wind speed in m/s (hover to see current wind gust speed)